Regional Weather Roundup
Issued by NWS Boston, MA

Home | Current Version | Previous Version | Text Only | Print | Product List | Glossary On
Versions: 1 2 3 4 5 6 7 8 9 10 11 12 13 14 15 16 17 18 19 20 21 22 23 24 25 26 27 28 29 30 31 32 33 34 35 36 37 38 39 40 41 42 43 44 45 46 47 48 49 50
000
ASUS41 KBOX 081710
RWRBOX

REGIONAL WEATHER ROUNDUP
NATIONAL WEATHER SERVICE TAUNTON MA
1200 PM EST MON FEB 08 2016

NOTE:  "FAIR" INDICATES FEW OR NO CLOUDS BELOW 12,000 FEET WITH NO
SIGNIFICANT WEATHER AND/OR OBSTRUCTIONS TO VISIBILITY.  THE FOLLOWING
OBSERVATION LOCATIONS DO NOT REPORT PRESENT WEATHER...PROVINCETOWN...
SMITHFIELD...BLOCK ISLAND...KEENE...AND OXFORD.

MAZALL-081800-
EASTERN MASSACHUSETTS

CITY           SKY/WX    TMP DP  RH WIND       PRES   REMARKS
BOSTON         SNOW      18  14  84 N20G28    29.80F VSB 1/2 WCI   2
BEVERLY        HVY SNOW  17  12  80 N16G22    29.81F VSB 1/4 WCI   2
LAWRENCE       SNOW      18  13  80 N14G21    29.84F VSB 1/2 WCI   4
BEDFORD        SNOW      18  14  84 N10       29.82F VSB 1/2 WCI   6
BLUE HILL        N/A     15  13  91 N21G28    29.72F WCI  -2
NORWOOD        HVY SNOW  18  14  84 N13G22    29.79F VSB 1/4 WCI   5
MARSHFIELD     SNOW      30  28  93 N17G32    29.75F VSB<1/4 WCI  18
PLYMOUTH       FOG       26  25  96 N22G38    29.69F VSB 1/4 WCI  12
TAUNTON        SNOW      22  17  81 N15G23    29.73F VSB 1/2 WCI   9
NEW BEDFORD    SNOW      26  25  96 N16G24    29.67F VSB 1/4 WCI  14
$$

MAZALL-081800-
CAPE COD AND THE ISLANDS

CITY           SKY/WX    TMP DP  RH WIND       PRES   REMARKS
FALMOUTH       SNOW      28  27  93 N23G45    29.63F VSB 1/4 WCI  14
HYANNIS        FOG       29  28  96 N26G43    29.60F VSB 1/4 WCI  14
CHATHAM        SNOW      29  29 100 N20G39    29.63F VSB 1/4 WCI  16
PROVINCETOWN   HVY SNOW  30  29  96 NE31G45   29.69F VSB 1/4 WCI  15
NANTUCKET      BLWGSNOW  32  30  92 N39G52    29.56F VSB 1/4 WCI  16
MARTHAS VNYRD  SNOW      30  28  92 N30G37    29.59F VSB 1/4 WCI  15
$$

MAZALL-081800-
CENTRAL AND WESTERN MASSACHUSETTS

CITY           SKY/WX    TMP DP  RH WIND       PRES   REMARKS
WORCESTER      SNOW      15  11  83 N16G23    29.73F VSB 1/4 WCI  -1
FITCHBURG      SNOW      19  12  74 N13       29.82F VSB 1/2 WCI   6
ORANGE         LGT SNOW  20  10  65 N12       29.82F WCI   8
SPRINGFIELD    LGT SNOW  23  13  68 NE15      29.80F WCI  10
WESTFIELD      LGT SNOW  21  14  74 N14       29.82F VSB 3/4 WCI   8
NORTH ADAMS    CLOUDY    28  -7  21 VRB3      29.84F
PITTSFIELD     CLOUDY    25  -9  22 VRB7      29.78F WCI  17
$$

RIZALL-081800-
RHODE ISLAND

CITY           SKY/WX    TMP DP  RH WIND       PRES   REMARKS
PROVIDENCE     HVY SNOW  20  16  84 N20       29.73F VSB 1/4 WCI   4
NEWPORT        FOG       22  18  85 N24G35    29.68F VSB 1   WCI   5
BLOCK ISLAND   CLOUDY    25  21  86 N24G33    29.64F VSB 1   WCI   9
SMITHFIELD     CLOUDY    18  14  86 N20G26    29.72F VSB 1/2 WCI   1
WESTERLY       FOG       22  19  89 N15G24    29.71F VSB 1/4 WCI   9
$$

CTZALL-081800-
CONNECTICUT

CITY           SKY/WX    TMP DP  RH WIND       PRES   REMARKS
BRADLEY INTL   LGT SNOW  21  15  78 N15G26    29.81F WCI   8
HARTFORD       SNOW      23  18  81 N12       29.81F VSB 1/2 WCI  12
BRIDGEPORT     LGT SNOW  26  21  81 N15G24    29.77F VSB 3/4 WCI  14
DANBURY        SNOW      25  19  78 N14G20    29.80F VSB 1/2 WCI  13
GROTON         FOG       22  21  96 N18G32    29.71F VSB 1/4 WCI   7
NEW HAVEN      LGT SNOW  24  20  84 N15G24    29.76F VSB 1   WCI  11
CHESTER        SNOW      25  21  86 N16G26    29.73F VSB 1/2 WCI  12
MERIDEN        LGT SNOW  24  17  74 N18G28    29.79F VSB 1   WCI  10
WILLIMANTIC    SNOW      22  17  81 N13G21    29.77F VSB 1/2 WCI  10
OXFORD         LGT SNOW  21  10  63 N16G23    29.75F VSB 1   WCI   7
$$

MEZ002-015-021-024-NHZ003-005-008-011-012-014-VTZ005-008-081800-
NORTHERN NEW ENGLAND

CITY           SKY/WX    TMP DP  RH WIND       PRES   REMARKS
PORTLAND ME    CLOUDY    18   5  57 N15G30    29.91F WCI   4
BANGOR ME      FLURRIES  16   8  71 N14       29.94F WCI   2
CONCORD NH     CLOUDY    22   0  38 N8G18     29.88F WCI  12
MANCHESTER NH  LGT SNOW  21  11  65 N16       29.84F WCI   7
NASHUA NH      CLOUDY    19  12  73 N13       29.85F VSB 1   WCI   7
PORTSMOUTH NH  LGT SNOW  18  10  69 N13       29.85F VSB 3/4 WCI   5
JAFFREY NH     LGT SNOW  19   7  59 VRB5      29.78F WCI  12
KEENE NH       CLOUDY    25  -2  30 NE6       29.85F WCI  18
BURLINGTON VT  PTSUNNY   26  13  57 NW8       29.89F WCI  18
MT. WASHINGTON CLOUDY     3 -33  17 E32G47      N/A  WCI -22
$$

NYZ052-076-081800-
EASTERN NEW YORK

CITY           SKY/WX    TMP DP  RH WIND       PRES   REMARKS
ALBANY         CLOUDY    34  11  38 NE5       29.86F WCI  30
NEW YORK CITY  LGT SNOW  32  27  81 N17G23    29.78F VSB 1   WCI  21
$$

ANZALL-081800-
MARINE OBSERVATIONS

STATION/POSITION TIME  TEMP    WIND        PRES    VSBY  WAVE
                       AIR SEA DIR/SP/G                  HT/PER
                 (UTC) (F)     (DEG/KT/KT) (MB)    (MI)  (FT/S)
BOSTON BUOY      1650   27 41   20/ 31/ 39 1006.7F        17/10
BUZZARDS BAY     1700          360/ 32/ 34 1002.9F
NANTUCKET SOUND  1650   32 41   10/ 31/ 37 1001.3F         6/ 5
MASS BAY-STELLWA 1604   27 43  360/ 29/ 35   N/A    1 7/8
ISLE OF SHOALS   1700   20      20/ 30/ 34 1009.1F
S OF BLOCK IS    NOT AVBL
$$

......................KEY.........................
  SKY/WX - SKY CONDITION/PRESENT WEATHER
  TMP    - TEMPERATURE IN FAHRENHEIT
  DWPT   - DEWPOINT IN FAHRENHEIT
  RH     - RELATIVE HUMIDITY IN PERCENT
  WIND   - DIRECTION AND SPEED IN MPH
  PRES   - MEAN SEA LEVEL PRESSURE IN INCHES OF HG
  WCI    - WIND CHILL INDEX
  VSB    - VISIBILITY IN MILES
  HX     - HEAT INDEX
  TC     - TEMPERATURE IN CELSIUS
  VRB    - VARIABLE WIND DIRECTION
  N/A    - NOT AVAILABLE



USA.gov is the U.S. government's official web portal to all federal, state and local government web resources and services.